When you browse on this site, cookies collect data to enhance your experience and personalize the content and advertising you see.
Visit our Privacy Policy to learn more. By continuing to use the site, you agree to this use of cookies and data.
  • In Austria
  • List of Countries
  • For 7 days
  • Water Temperature
  • Satellite Maps
  • Weather Map
  • News
  • Weather Widgets
  • user-avatar
    Login

    Hourly Weather Wroclaw

    Today, 21 March, Thursday

    Time Temperature Precipitation Wind Pressure Humidity
    00:00 +4°C° 0 mm 2 mps 764 mmHg 63%
    01:00 +3°C° 0 mm 3 mps 764 mmHg 64%
    02:00 +3°C° 0 mm 3 mps 764 mmHg 65%
    03:00 +3°C° 0 mm 3 mps 764 mmHg 66%
    04:00 +3°C° 0 mm 3 mps 764 mmHg 67%
    05:00 +3°C° 0 mm 3 mps 764 mmHg 67%
    06:00 +4°C° 0 mm 3 mps 764 mmHg 68%
    07:00 +4°C° 0 mm 3 mps 765 mmHg 69%
    08:00 +7°C° 0 mm 3 mps 765 mmHg 69%
    09:00 +8°C° 0 mm 3 mps 765 mmHg 69%
    10:00 +9°C° 0 mm 3 mps 765 mmHg 69%
    11:00 +10°C° 0 mm 3 mps 765 mmHg 68%
    12:00 +12°C° 0 mm 3 mps 764 mmHg 66%
    13:00 +13°C° 0 mm 4 mps 764 mmHg 64%
    14:00 +13°C° 0 mm 3 mps 764 mmHg 64%
    15:00 +13°C° 0 mm 3 mps 764 mmHg 64%
    16:00 +13°C° 0 mm 3 mps 763 mmHg 64%
    17:00 +13°C° 0 mm 2 mps 763 mmHg 70%
    18:00 +12°C° 0 mm 2 mps 763 mmHg 76%
    19:00 +10°C° 0 mm 1 mps 763 mmHg 82%
    20:00 +10°C° 0 mm 1 mps 763 mmHg 84%
    21:00 +10°C° 0 mm 1 mps 763 mmHg 85%
    22:00 +9°C° 0 mm 1 mps 763 mmHg 87%
    23:00 +8°C° 0 mm 2 mps 763 mmHg 88%

    Tomorrow, 22 March, Friday

    Time Temperature Precipitation Wind Pressure Humidity
    00:00 +8°C° 0 mm 2 mps 764 mmHg 89%
    01:00 +7°C° 0 mm 2 mps 764 mmHg 90%
    02:00 +7°C° 0 mm 2 mps 763 mmHg 91%
    03:00 +7°C° 0 mm 2 mps 763 mmHg 91%
    04:00 +7°C° 0 mm 2 mps 763 mmHg 92%
    05:00 +7°C° 0 mm 2 mps 763 mmHg 92%
    06:00 +7°C° 0 mm 2 mps 764 mmHg 92%
    07:00 +7°C° 0 mm 2 mps 764 mmHg 92%
    08:00 +9°C° 0 mm 2 mps 764 mmHg 87%
    09:00 +12°C° 0 mm 2 mps 764 mmHg 82%
    10:00 +13°C° 0 mm 2 mps 764 mmHg 76%
    11:00 +14°C° 0 mm 2 mps 764 mmHg 73%
    12:00 +15°C° 0 mm 2 mps 764 mmHg 70%
    13:00 +16°C° 0 mm 2 mps 764 mmHg 67%
    14:00 +16°C° 0 mm 2 mps 763 mmHg 67%
    15:00 +16°C° 0 mm 2 mps 763 mmHg 66%
    16:00 +16°C° 0 mm 1 mps 762 mmHg 66%
    17:00 +14°C° 0 mm 2 mps 762 mmHg 72%
    18:00 +13°C° 0 mm 2 mps 762 mmHg 78%
    19:00 +12°C° 0 mm 2 mps 762 mmHg 84%
    20:00 +10°C° 0 mm 2 mps 762 mmHg 87%
    21:00 +9°C° 0 mm 3 mps 762 mmHg 89%
    22:00 +9°C° 0 mm 3 mps 762 mmHg 92%
    23:00 +8°C° 0 mm 3 mps 762 mmHg 92%

    Day after tomorrow, 23 March, Saturday

    Time Temperature Precipitation Wind Pressure Humidity
    00:00 +8°C° 0 mm 3 mps 762 mmHg 93%
    01:00 +8°C° 0 mm 3 mps 761 mmHg 94%
    02:00 +8°C° 0 mm 2 mps 761 mmHg 93%
    03:00 +7°C° 0 mm 2 mps 761 mmHg 93%
    04:00 +7°C° 0 mm 2 mps 760 mmHg 93%
    05:00 +8°C° 0 mm 2 mps 760 mmHg 91%
    06:00 +8°C° 0 mm 2 mps 760 mmHg 90%
    07:00 +8°C° 0 mm 2 mps 760 mmHg 88%
    08:00 +12°C° 0 mm 1 mps 760 mmHg 80%
    09:00 +14°C° 0 mm 1 mps 760 mmHg 71%
    10:00 +16°C° 0 mm 1 mps 759 mmHg 63%
    11:00 +18°C° 0 mm 1 mps 759 mmHg 58%
    12:00 +19°C° 0 mm 1 mps 759 mmHg 53%
    13:00 +21°C° 0 mm 1 mps 758 mmHg 48%
    14:00 +21°C° 0 mm 1 mps 758 mmHg 47%
    15:00 +20°C° 0 mm 2 mps 758 mmHg 46%
    16:00 +20°C° 0 mm 2 mps 757 mmHg 46%
    17:00 +19°C° 0 mm 2 mps 757 mmHg 51%
    18:00 +17°C° 0 mm 2 mps 758 mmHg 57%
    19:00 +15°C° 0 mm 2 mps 758 mmHg 62%
    20:00 +13°C° 0 mm 3 mps 758 mmHg 69%
    21:00 +13°C° 0 mm 4 mps 759 mmHg 75%
    22:00 +12°C° 0 mm 4 mps 759 mmHg 81%
    23:00 +11°C° 0 mm 4 mps 759 mmHg 81%

    24 March, Sunday

    Time Temperature Precipitation Wind Pressure Humidity
    00:00 +9°C° 0 mm 5 mps 759 mmHg 81%
    01:00 +8°C° 0 mm 5 mps 760 mmHg 80%
    02:00 +7°C° 0 mm 4 mps 760 mmHg 76%
    03:00 +7°C° 0 mm 4 mps 760 mmHg 71%
    04:00 +6°C° 0 mm 4 mps 760 mmHg 67%
    05:00 +5°C° 0 mm 3 mps 760 mmHg 65%
    06:00 +5°C° 0 mm 3 mps 760 mmHg 63%
    07:00 +5°C° 0 mm 3 mps 761 mmHg 61%
    08:00 +7°C° 0 mm 3 mps 761 mmHg 56%
    09:00 +7°C° 0 mm 2 mps 761 mmHg 52%
    10:00 +8°C° 0 mm 2 mps 761 mmHg 47%
    11:00 +9°C° 0 mm 2 mps 760 mmHg 44%
    12:00 +10°C° 0 mm 2 mps 760 mmHg 41%
    13:00 +10°C° 0 mm 2 mps 760 mmHg 39%
    14:00 +10°C° 0 mm 3 mps 759 mmHg 39%
    15:00 +10°C° 0 mm 3 mps 759 mmHg 39%
    16:00 +11°C° 0 mm 3 mps 758 mmHg 40%
    17:00 +10°C° 0 mm 3 mps 759 mmHg 44%
    18:00 +8°C° 0 mm 3 mps 759 mmHg 47%
    19:00 +7°C° 0 mm 2 mps 759 mmHg 51%
    20:00 +7°C° 0 mm 2 mps 759 mmHg 54%
    21:00 +6°C° 0 mm 2 mps 759 mmHg 57%
    22:00 +5°C° 0 mm 2 mps 759 mmHg 60%
    23:00 +4°C° 0 mm 2 mps 759 mmHg 63%

    25 March, Monday

    Time Temperature Precipitation Wind Pressure Humidity
    00:00 +4°C° 0 mm 2 mps 759 mmHg 66%
    01:00 +3°C° 0 mm 2 mps 759 mmHg 69%
    02:00 +3°C° 0 mm 2 mps 759 mmHg 68%
    03:00 +3°C° 0 mm 2 mps 759 mmHg 68%
    04:00 +3°C° 0 mm 2 mps 758 mmHg 68%
    05:00 +3°C° 0 mm 3 mps 758 mmHg 67%
    06:00 +3°C° 0 mm 4 mps 758 mmHg 65%
    07:00 +2°C° 0 mm 5 mps 758 mmHg 64%
    08:00 +3°C° 0 mm 6 mps 758 mmHg 59%
    09:00 +4°C° 0 mm 7 mps 758 mmHg 55%
    10:00 +6°C° 0 mm 8 mps 758 mmHg 50%
    11:00 +6°C° 0.1 mm 8 mps 757 mmHg 53%
    12:00 +6°C° 0.1 mm 9 mps 757 mmHg 56%
    13:00 +5°C° 0.1 mm 9 mps 756 mmHg 59%
    14:00 +5°C° 0.1 mm 9 mps 756 mmHg 60%
    15:00 +5°C° 0.1 mm 8 mps 755 mmHg 61%
    16:00 +5°C° 0.1 mm 8 mps 755 mmHg 62%
    17:00 +5°C° 0.2 mm 7 mps 755 mmHg 67%
    18:00 +4°C° 0.2 mm 7 mps 755 mmHg 71%
    19:00 +4°C° 0.2 mm 7 mps 755 mmHg 75%
    20:00 +4°C° 0.2 mm 7 mps 755 mmHg 75%
    21:00 +3°C° 0.2 mm 7 mps 755 mmHg 76%
    22:00 +3°C° 0.2 mm 7 mps 754 mmHg 76%
    23:00 +2°C° 0.2 mm 7 mps 754 mmHg 76%

    26 March, Tuesday

    Time Temperature Precipitation Wind Pressure Humidity
    00:00 +2°C° 0.2 mm 7 mps 754 mmHg 76%
    01:00 +2°C° 0.2 mm 7 mps 754 mmHg 76%
    02:00 0°C° 0 mm 7 mps 754 mmHg 76%
    03:00 -1°C° 0 mm 7 mps 754 mmHg 76%
    04:00 -1°C° 0 mm 7 mps 753 mmHg 77%
    05:00 -1°C° 0 mm 7 mps 754 mmHg 77%
    06:00 -1°C° 0 mm 7 mps 754 mmHg 77%
    07:00 -1°C° 0 mm 8 mps 754 mmHg 77%
    08:00 0°C° 0.3 mm 8 mps 754 mmHg 70%
    09:00 +1°C° 0.3 mm 9 mps 755 mmHg 63%
    10:00 +2°C° 0.3 mm 9 mps 755 mmHg 56%
    11:00 +3°C° 0 mm 9 mps 755 mmHg 50%
    12:00 +3°C° 0 mm 9 mps 755 mmHg 44%
    13:00 +5°C° 0 mm 9 mps 755 mmHg 38%
    14:00 +5°C° 0 mm 9 mps 756 mmHg 39%
    15:00 +5°C° 0 mm 9 mps 756 mmHg 40%
    16:00 +5°C° 0 mm 8 mps 756 mmHg 41%
    17:00 +4°C° 0 mm 7 mps 757 mmHg 46%
    18:00 +3°C° 0 mm 6 mps 757 mmHg 51%
    19:00 +3°C° 0 mm 4 mps 758 mmHg 56%
    20:00 +1°C° 0 mm 4 mps 758 mmHg 59%
    21:00 0°C° 0 mm 4 mps 759 mmHg 62%
    22:00 0°C° 0 mm 4 mps 759 mmHg 65%
    23:00 -1°C° 0 mm 4 mps 760 mmHg 69%
    Show more